Voltar ao catálogo

NUSAT-51

YVONNE BRILL

AtivoCiênciaSSO
NORAD 66740·PAYLOAD·🇦🇷 Argentina

Lançado Nov 28, 2025 de Vandenberg Space Force Base

Loading…

Próximas Passagens (próximas 24 horas)

TLE

AtualizadoSource: Space-Track

Época: Sep 14, 2026, 10:47 UTC

1 66740U 25276CC  26257.44954867  .00004526  00000-0  20626-3 0  9990
2 66740  97.4141 329.7283 0004275  59.6436 300.5223 15.21153440 43992

Acompanhe NUSAT-51 em tempo real com AllMySat

Download on the App Store